Total_Precipitation_Accumulation
0.23 0.36 0.79 1.11 1.29 1.29 1.17 1.18 1.18 1.16 1.20 1.15 1.10 1.05 0.95 0.94 0.93 0.91 0.91 0.94 1.11 1.28 1.38 1.41 1.31 1.24 1.09 0.96 0.76 0.54 0.49 0.50 0.44 0.37 0.35 0.44 0.54 0.54 0.48 0.48 0.51 0.58 0.81
0.24 0.35 0.74 1.09 1.38 1.41 1.27 1.17 1.05 1.01 1.10 1.22 1.19 1.09 1.04 1.02 1.02 0.98 1.02 1.10 1.27 1.35 1.40 1.40 1.29 1.10 0.90 0.70 0.55 0.43 0.36 0.28 0.22 0.15 0.12 0.21 0.41 0.55 0.55 0.51 0.51 0.69 0.80
0.25 0.37 0.68 1.08 1.36 1.34 1.24 1.13 0.99 0.97 1.07 1.21 1.30 1.17 1.13 1.12 1.12 1.07 1.10 1.21 1.37 1.39 1.27 1.15 1.07 0.85 0.68 0.50 0.40 0.33 0.30 0.24 0.16 0.11 0.12 0.22 0.40 0.66 0.71 0.64 0.72 0.85 0.82
0.30 0.40 0.65 1.09 1.37 1.41 1.30 1.16 1.02 1.02 1.12 1.22 1.40 1.38 1.29 1.21 1.18 1.19 1.14 1.23 1.28 1.19 1.09 0.88 0.77 0.60 0.51 0.43 0.35 0.31 0.26 0.23 0.15 0.12 0.18 0.24 0.35 0.79 0.88 0.77 0.80 0.84 0.77
0.38 0.48 0.74 1.13 1.45 1.50 1.36 1.23 1.09 1.08 1.21 1.28 1.36 1.45 1.42 1.32 1.32 1.34 1.24 1.15 1.13 1.04 0.90 0.71 0.58 0.44 0.37 0.34 0.33 0.31 0.26 0.20 0.12 0.11 0.17 0.24 0.39 0.86 0.90 0.84 0.80 0.78 0.72
0.50 0.64 0.85 1.17 1.50 1.62 1.49 1.35 1.21 1.21 1.32 1.36 1.40 1.52 1.50 1.48 1.54 1.46 1.23 1.06 0.98 0.85 0.72 0.64 0.52 0.39 0.33 0.30 0.28 0.26 0.24 0.17 0.10 0.11 0.15 0.21 0.36 0.80 0.93 0.85 0.80 0.75 0.78
0.56 0.81 1.07 1.35 1.59 1.79 1.72 1.61 1.51 1.42 1.44 1.47 1.49 1.54 1.57 1.55 1.57 1.44 1.14 0.99 0.90 0.79 0.73 0.63 0.52 0.40 0.34 0.31 0.27 0.22 0.20 0.14 0.13 0.16 0.17 0.21 0.42 0.88 0.97 0.90 0.86 0.84 0.81
0.68 0.92 1.29 1.70 1.85 2.02 2.00 1.85 1.79 1.62 1.56 1.58 1.58 1.61 1.64 1.64 1.58 1.49 1.18 1.02 0.90 0.86 0.81 0.70 0.55 0.45 0.35 0.30 0.25 0.21 0.18 0.12 0.12 0.15 0.18 0.22 0.45 0.80 0.85 0.79 0.77 0.79 0.77
0.98 1.07 1.31 1.69 1.96 2.14 2.17 1.93 1.93 1.79 1.62 1.63 1.67 1.70 1.60 1.55 1.55 1.46 1.23 1.10 1.00 0.98 0.93 0.82 0.68 0.54 0.40 0.32 0.26 0.21 0.15 0.10 0.10 0.15 0.16 0.23 0.44 0.71 0.72 0.67 0.71 0.77 0.73
1.43 1.43 1.47 1.70 1.94 2.20 2.28 1.96 1.81 1.73 1.66 1.61 1.58 1.51 1.39 1.31 1.33 1.32 1.19 1.11 1.02 1.03 1.00 0.87 0.75 0.61 0.48 0.38 0.28 0.19 0.14 0.11 0.12 0.16 0.19 0.25 0.49 0.72 0.72 0.71 0.71 0.72 0.75
1.87 1.88 1.83 1.87 1.93 2.11 2.27 2.11 1.97 1.82 1.70 1.60 1.52 1.37 1.31 1.26 1.20 1.07 0.99 0.97 0.98 1.02 1.05 0.94 0.80 0.68 0.47 0.35 0.27 0.21 0.18 0.16 0.17 0.22 0.24 0.32 0.59 0.77 0.80 0.79 0.76 0.73 0.76
1.99 1.99 2.05 2.08 2.07 2.14 2.19 2.20 2.12 1.93 1.78 1.62 1.45 1.33 1.33 1.33 1.24 1.06 1.01 0.96 1.00 1.04 1.10 1.04 0.86 0.73 0.51 0.40 0.33 0.27 0.23 0.20 0.24 0.28 0.29 0.41 0.67 0.84 0.87 0.83 0.75 0.73 0.77
2.23 2.15 2.15 2.24 2.33 2.29 2.28 2.20 2.12 1.92 1.83 1.76 1.59 1.43 1.40 1.52 1.43 1.32 1.14 1.03 1.05 1.02 1.03 1.00 0.89 0.72 0.54 0.44 0.38 0.32 0.28 0.27 0.27 0.31 0.34 0.46 0.76 0.94 0.96 0.88 0.76 0.73 0.75
2.63 2.50 2.48 2.59 2.62 2.54 2.43 2.29 2.18 1.96 1.79 1.74 1.66 1.64 1.56 1.52 1.39 1.30 1.19 1.02 0.98 0.95 0.95 0.98 0.87 0.75 0.67 0.55 0.46 0.43 0.40 0.36 0.34 0.39 0.40 0.43 0.67 0.93 1.06 1.03 0.90 0.88 0.85
2.85 2.88 2.84 2.92 2.98 2.89 2.75 2.52 2.24 2.08 1.87 1.75 1.72 1.71 1.63 1.52 1.42 1.33 1.24 1.19 1.04 0.96 0.93 1.00 0.98 0.86 0.79 0.72 0.61 0.49 0.46 0.46 0.43 0.45 0.45 0.46 0.57 0.80 1.10 1.25 1.21 1.14 1.12
2.88 3.07 3.22 3.25 3.23 3.16 2.98 2.73 2.40 2.26 2.08 1.97 1.87 1.76 1.69 1.65 1.62 1.55 1.37 1.27 1.16 1.04 0.99 1.04 1.07 0.98 0.91 0.81 0.72 0.61 0.55 0.54 0.46 0.44 0.45 0.48 0.50 0.63 0.91 1.22 1.38 1.41 1.43
2.85 3.16 3.37 3.56 3.70 3.51 3.30 3.03 2.72 2.55 2.38 2.21 2.03 1.89 1.78 1.72 1.80 1.77 1.63 1.40 1.25 1.21 1.17 1.16 1.21 1.20 1.08 0.93 0.82 0.74 0.66 0.60 0.53 0.49 0.48 0.48 0.48 0.48 0.65 0.98 1.29 1.42 1.51
2.81 3.05 3.29 3.37 3.69 3.83 3.71 3.46 3.04 2.78 2.61 2.48 2.31 2.15 2.06 1.89 1.93 2.01 1.84 1.67 1.52 1.47 1.42 1.34 1.25 1.17 1.08 0.94 0.85 0.80 0.74 0.69 0.62 0.62 0.61 0.54 0.49 0.44 0.50 0.68 0.90 1.16 1.40
2.86 3.00 3.31 3.36 3.51 3.78 3.92 3.81 3.54 3.25 2.98 2.77 2.62 2.44 2.34 2.22 2.12 2.14 2.07 1.92 1.83 1.74 1.68 1.56 1.41 1.25 1.13 1.01 0.92 0.91 0.88 0.80 0.76 0.71 0.65 0.58 0.55 0.52 0.53 0.55 0.61 0.77 0.99
2.95 3.22 3.45 3.64 3.69 3.94 4.36 4.36 4.07 3.81 3.51 3.28 3.04 2.82 2.69 2.60 2.48 2.31 2.30 2.23 2.13 1.98 1.86 1.82 1.65 1.46 1.29 1.22 1.16 1.06 0.97 0.88 0.86 0.81 0.74 0.67 0.63 0.62 0.66 0.67 0.67 0.68 0.74
2.69 3.05 3.21 3.50 3.74 3.94 4.17 4.21 3.98 3.72 3.52 3.34 3.32 3.24 3.05 2.87 2.77 2.60 2.42 2.42 2.38 2.18 1.95 1.94 1.92 1.75 1.59 1.54 1.50 1.27 1.09 0.97 0.90 0.82 0.84 0.83 0.75 0.69 0.72 0.80 0.86 0.80 0.67
2.34 2.59 2.83 3.09 3.38 3.60 3.72 3.81 3.91 3.92 3.68 3.41 3.34 3.35 3.30 3.18 3.02 2.80 2.62 2.52 2.48 2.43 2.18 2.02 2.08 2.03 1.86 1.81 1.83 1.77 1.57 1.36 1.06 0.89 0.86 0.85 0.82 0.81 0.77 0.76 0.81 0.83 0.79
2.08 2.31 2.53 2.78 2.98 3.13 3.49 3.81 3.91 4.17 4.09 3.64 3.28 3.11 3.23 3.29 3.27 3.06 2.82 2.75 2.68 2.66 2.56 2.35 2.24 2.21 2.14 2.01 2.00 2.19 1.98 1.63 1.26 1.04 0.96 0.93 0.89 0.91 0.90 0.85 0.82 0.82 0.84
1.80 2.01 2.31 2.61 2.85 2.92 3.23 3.50 3.52 3.48 3.60 3.37 3.15 3.11 3.22 3.29 3.32 3.31 3.13 2.90 2.79 2.75 2.70 2.75 2.75 2.59 2.46 2.24 2.07 1.94 1.87 1.69 1.62 1.40 1.14 1.09 1.03 0.97 1.00 0.98 0.92 0.90 0.88
1.60 1.72 1.99 2.38 2.70 2.85 2.96 3.17 3.38 3.37 3.37 3.47 3.42 3.29 3.19 3.13 3.18 3.30 3.26 3.09 2.78 2.61 2.53 2.60 2.70 2.77 2.63 2.40 2.20 2.05 1.92 1.70 1.59 1.63 1.44 1.26 1.22 1.08 1.02 1.07 1.09 1.09 1.10
1.43 1.47 1.69 1.99 2.42 2.81 2.95 2.99 3.09 3.13 3.08 3.20 3.36 3.35 3.26 3.11 3.04 3.09 3.11 3.02 2.86 2.63 2.47 2.48 2.61 2.70 2.75 2.66 2.43 2.19 2.08 1.93 1.67 1.67 1.61 1.45 1.45 1.31 1.16 1.14 1.19 1.25 1.26